{"data":{"norad_id":54864,"intl_designator":"2022-177AW","name":"STARLINK-5359","alt_names":[],"object_type":"PAYLOAD","status":"ACTIVE","operator":null,"country":"US","launch_date":"2022-12-28","launch_site_code":"AFETR","launch_vehicle":null,"mission":null,"orbit_class":"UNKNOWN","rcs_meters":null,"size_class":null,"mass_kg":null,"dimensions":null,"purposes":["comms"],"wikipedia_slug":null,"has_3d_model":false,"image_url":null,"decayed_at":null,"tle_current":{"epoch":"2026-09-19T22:20:10.226688Z","epoch_age_seconds":141891,"freshness":"FRESH","line1":"1 54864U 22177AW  26262.93067392  .00000402  00000+0  24118-4 0  9998","line2":"2 54864  43.0013 104.9105 0000986 258.2767 101.7974 15.27565804206796","mean_motion":15.27565804,"eccentricity":9.86e-5,"inclination_deg":43.0013,"raan_deg":104.9105,"arg_perigee_deg":258.2767,"mean_anomaly_deg":101.7974,"bstar":2.4118e-5,"rev_number":20679,"period_min":94.267624754973,"perigee_km":482.41508715945,"apogee_km":483.76812144022,"semimajor_km":6861.2286042998,"source":"CELESTRAK","updated_at":"2026-09-21T09:00:33.160845Z"}}}